www.pogodaiklimat.ru

Погода и климат >> Архив погоды >> Россия >> Красноярский край >> Ачинск


АРХИВ ПОГОДЫ в Ачинске

Время (UTC), дата Ветер
(напр.,м/с)
 
Видим.   Явления Облачность Т
(С)
Тd
(С)
f
(%)
Тe
(С)
Тes
(С)
Комфортность P
(гПа)
Po
(гПа)
Тmin
(С)
Tmax
(С)
R
(мм)
R24
(мм)
S
(см)
00 15.08 СВ 1 20 км 10/0
[Ac trans Cs]
+11.0 +9.2 89 +11 +11 по сезону 1012.4 981.7 +10.4
03 15.08 В 1 10 км дым 4/0
[Ci fib]
+16.6 +12.1 75 +17 +25 тепло 1011.1 981.1
06 15.08 СВ 2 10 км дым 6/0
[Ci fib]
+21.2 +14.0 63 +24 +34 комфорт 1010.0 980.6
09 15.08 СВ 1 10 км дым 9/9 600 м
[Sc]
+23.1 +14.1 57 +27 +27 душно 1009.9 980.6
12 15.08 СВ 1 10 км дым 9/6 600 м
[Sc Ci fib]
+21.0 +13.2 61 +25 +25 комфорт 1010.1 980.6 +23.7
15 15.08 СВ 1 20 км 3/3 600 м
[Sc]
+16.4 +12.1 76 +17 +17 по сезону 1010.7 980.7
18 15.08 СВ 1 20 км 8/0
[Ci fib]
+15.2 +11.4 78 +16 +16 тепло 1010.7 980.6
21 15.08 СВ 1 20 км 9/6 600 м
[Sc Ci fib]
+14.0 +10.7 80 +14 +14 по сезону 1010.0 979.8
00 16.08 В 1 10 км дым 10/0
[Ac trans Cs]
+13.5 +10.4 82 +14 +14 тепло 1009.6 979.3 +13.1
03 16.08 СВ 2 20 км 10/0
[Cs]
+17.6 +13.1 75 +18 +24 тепло 1008.7 978.8
06 16.08 В 1 20 км 9/0
[Ci fib]
+23.2 +13.3 54 +26 +38 жарко 1007.4 978.2
09 16.08 СВ 2 20 км 9/4 1000 м
[Cu hum Cc]
+24.0 +11.8 46 +26 +29 жарко 1007.0 977.9
12 16.08 СВ 1 20 км 9/3 600 м
[Cu hum Cc]
+22.9 +12.0 50 +25 +26 комфорт 1007.4 978.1 +25.0
15 16.08 В 1 20 км 6/4 600 м
[Sc Ac trans]
+18.2 +12.7 70 +20 +20 тепло 1008.8 979.0
18 16.08 СВ 1 20 км 3/3 600 м
[Sc]
+15.1 +11.6 80 +16 +16 тепло 1009.7 979.6
21 16.08 СВ 1 20 км ясно +13.8 +11.0 83 +14 +14 тепло 1010.4 980.2
00 17.08 штиль 0 10 км дымка ясно +13.3 +11.0 86 +13 +14 по сезону 1011.8 981.4 +12.9
03 17.08 СВ 1 10 км дымка ясно +18.9 +14.2 74 +21 +29 комфорт 1011.8 982.0
06 17.08 С 1 10 км дым 3/3 1000 м
[Cu med, cong]
+23.5 +14.8 58 +26 +36 жарко 1011.5 982.2
09 17.08 СВ 2 10 км дым 3/3 1000 м
[Cu med, cong]
+25.1 +12.1 44 +27 +32 жарко 1011.3 982.1
12 17.08 СВ 1 10 км дым ясно +22.9 +14.6 59 +27 +27 душно 1012.0 982.6 +25.6
15 17.08 СВ 1 4000 м дым ясно +17.9 +13.8 77 +19 +19 тепло 1013.5 983.6
18 17.08 СВ 1 4000 м дым ясно +15.3 +12.6 84 +16 +16 тепло 1013.7 983.5
21 17.08 штиль 0 4000 м дымка 3/3 600 м
[Sc]
+13.9 +12.5 91 +13 +13 по сезону 1013.8 983.4
00 18.08 штиль 0 4000 м туман местами ясно +12.4 +11.5 94 +12 +13 по сезону 1014.1 983.6 +12.2
03 18.08 СЗ 1 4000 м дым ясно +18.1 +14.1 77 +19 +28 тепло 1013.7 983.8 +12.0
06 18.08 С 2 10 км дым 6/6 600 м
[Cu med, cong]
+22.5 +11.9 51 +25 +30 комфорт 1012.5 983.0
09 18.08 С 4 10 км дым 6/6 600 м
[Cu med, cong]
+22.8 +8.1 39 +24 +26 комфорт 1011.3 981.9
12 18.08 СВ 1 10 км слаб. ливневой дождь 8/8 600 м
[Cb cap]
+18.8 +12.6 67 +21 +21 комфорт 1013.1 983.3 +23.1 0.0
15 18.08 штиль 0 10 км дым ясно +15.4 +12.2 81 +15 +15 по сезону 1014.7 984.5
18 18.08 штиль 0 10 км дымка ясно +12.8 +11.5 92 +12 +12 по сезону 1015.4 984.9
21 18.08 ЮЗ 1 10 км дымка ясно +10.4 +9.6 95 +10 +10 по сезону 1015.7 985.0
00 19.08 штиль 0 4000 м дымка 3/0
[Ci fib]
+11.0 +10.1 94 +10 +11 по сезону 1016.8 986.0 +9.8
03 19.08 Ю 1 4000 м дымка 3/0
[]
+19.1 +0.1 28 +20 +27 тепло 1016.1 986.2
06 19.08 ЮЗ 1 10 км дым ясно +22.4 +11.2 49 +25 +38 комфорт 1015.1 985.6
09 19.08 Ю 2 10 км дым 6/0
[Ci fib]
+23.5 +9.3 40 +24 +30 комфорт 1014.4 985.0
12 19.08 Ю 1 10 км дым 9/0
[Ac lent Cc]
+22.3 +10.7 48 +24 +25 комфорт 1014.3 984.8 +23.7
15 19.08 З 2 10 км дым 9/9 600 м
[Sc]
+16.5 +12.6 78 +17 +17 тепло 1016.4 986.2
18 19.08 Ю 1 10 км дым 9/9 600 м
[Sc]
+15.7 +12.0 79 +16 +16 тепло 1015.8 985.6
21 19.08 ЮВ 1 10 км в посл. час ливневой дождь 10/10 600 м
[Cb cap]
+15.0 +12.0 82 +16 +16 тепло 1015.3 985.0
00 20.08 штиль 0 10 км дымка {ливн. осадки} 10/10 600 м
[Cb cap]
+14.4 +12.4 88 +14 +14 тепло 1014.9 984.6 +14.1 0.3
03 20.08 В 1 10 км дым 9/9 600 м
[Sc]
+17.0 +13.4 79 +18 +19 тепло 1013.9 983.9
06 20.08 ЮВ 1 10 км дым 9/9 600 м
[Sc]
+18.1 +14.0 77 +19 +21 по сезону 1013.1 983.2
09 20.08 ЮВ 1 10 км слаб. ливневой дождь 10/10 600 м
[Cb cap]
+18.6 +14.8 79 +20 +20 тепло 1012.0 982.2
12 20.08 ЮВ 1 10 км слаб. ливневой дождь 10/10 600 м
[Cb cap]
+16.1 +15.5 96 +17 +17 по сезону 1012.2 982.2 +20.0 5
15 20.08 З 3
{11}
10 км слаб. ливневой дождь 10/10 600 м
[Cb cap]
+14.5 +14.3 99 +13 +13 прохладно 1013.6 983.3
18 20.08 ЮЗ 3 20 км слаб. ливневой дождь 10/10 300 м
[Cb cap]
+13.2 +13.1 99 +12 +12 по сезону 1014.7 984.3
21 20.08 ЮЗ 2 20 км {ливн. осадки} 10/10 600 м
[Cb cap]
+12.0 +11.6 97 +11 +11 по сезону 1015.1 984.5
00 21.08 ЮЗ 2 20 км {ливн. осадки} 6/4 600 м
[Cb cap Ci fib]
+11.8 +10.6 92 +11 +11 по сезону 1015.4 984.8 +11.8 12
03 21.08 Ю 1 20 км 3/3 1000 м
[Cu hum]
+16.1 +11.8 76 +17 +22 тепло 1015.2 985.0 +11.7
06 21.08 Ю 1 10 км дым 5/5 600 м
[Cu med, cong]
+18.4 +10.9 62 +20 +26 тепло 1014.0 984.1
09 21.08 ЮЗ 3
{11}
20 км слаб. ливневой дождь 10/10 600 м
[Cb cap]
+13.8 +11.6 87 +13 +13 холодно 1015.5 985.1
12 21.08 штиль 0 20 км в посл. час ливневой дождь 9/8 600 м
[Cb cap Cs]
+14.0 +12.5 91 +14 +14 прохладно 1014.6 984.2 +20.8 3
15 21.08 ЮВ 2 20 км {ливн. осадки} 8/8 600 м
[Cb cap Ci fib]
+12.7 +11.7 94 +12 +12 прохладно 1014.5 984.0
18 21.08 В 1 20 км {ливн. осадки} 6/4 600 м
[Cb cap Ci fib]
+11.1 +10.3 95 +11 +11 по сезону 1013.9 983.2
21 21.08 В 1 20 км ясно +10.5 +9.3 92 +10 +10 по сезону 1013.1 982.4

 

Местоположение метеостанции Ачинск (Красноярский край, Россия): широта 56.28 долгота 90.52 высота над уровнем моря 257 м.

В архиве по умолчанию представлена погода в Ачинске за последнюю неделю. Архивные данные за месяц целиком и за предыдущие месяцы, начиная с января 2011 года, Вы можете получить, выбрав интересующий диапазон дат из раскрывающегося списка и нажав кнопку "Ввод!".


*Определитесь, кто Вы:
робот инопланетянин человек

Внимание! Время в таблицах - всемирное. Для получения местного времени необходимо прибавить поправку, которая равна 7 ч.

Смотрите также архив погоды в соседних городах и на ближайших метеорологических станциях:

Погода в Назарово (Красноярский край, Россия) (30 км)
Погода в Большом Улуе (Красноярский край, Россия) (41 км)
Погода в Боготоле (Красноярский край, Россия) (58 км)
Погода в Кемчуге (Красноярский край, Россия) (74 км)
Погода в Тюхтете (Красноярский край, Россия) (79 км)
Погода в Новобирилюссах (Красноярский край, Россия) (88 км)
Погода в Каче (Красноярский край, Россия) (105 км)
Погода в Шумихе (Красноярский край, Россия) (116 км)
Погода в Шарыпово (Красноярский край, Россия) (117 км)
Погода в Ужуре (Красноярский край, Россия) (117 км)

Пояснения к столбцам:

Ветер - указаны скорость ветра в м/с - средняя за 10 мин, порывы в срок и между сроками (в фигурных скобках) и направление, откуда дует ветер: С - северный, СВ - северо-восточный, В - восточный, ЮВ - юго-восточный, Ю - южный, ЮЗ - юго-западный, З - западный, СЗ - северо-западный.
Видимость - горизонтальная дальность видимости в метрах или километрах. При видимости от 1 до 10 км при отсутствии осадков обычно наблюдается дымка, при ухудшении видимости до 1 км и менее - туман. В сухую погоду видимость может ухудшаться дымом, пылью или мглою.
Явления - указаны атмосферные явления, наблюдавшиеся в срок или в последний час перед сроком; фигурными скобками обозначены явления, наблюдавшиеся между сроками (за 1-3 часа до срока); квадратными скобками обозначены град или гололедные отложения с указанием их диаметра в мм.
Облачность - указаны через наклонную черту общая и нижняя облачность в баллах и высота нижней границы облаков в метрах; квадратными скобками обозначены формы облаков: Ci - перистые, Cs - перисто-слоистые, Cc - перисто-кучевые, Ac - высококучевые, As - высокослоистые, Sc - слоисто-кучевые, Ns - слоисто-дождевые, Cu - кучевые, Cb - кучево-дождевые. Подробнее классификацию облаков см. в Атласе облаков (PDF).
T - Температура воздуха - температура, измеренная на высоте 2 м над землей.
Td - Температура точки росы - температура, при понижении до которой содержащийся в воздухе водяной пар достигнет насыщения.
f - Относительная влажность воздуха - влажноcть воздуха, измеренная на высоте 2 м над землей.
Te - Эффективная температура - температура, которую ощущает одетый по сезону человек в тени. Характеристика душности погоды. При расчете учитывается влияние влажности воздуха и скорости ветра на теплоощущения человека.
Tes - Эффективная температура на солнце - температура, которую ощущает человек, с поправкой на солнечный нагрев. Характеристика знойности погоды. Зависит от высоты солнца над горизонтом, облачности и скорости ветра. Ночью, в пасмурную погоду, а также при ветре 12 м/с и более поправка равна нулю.
P - Атмосферное давление - приведенное к уровню моря атмосферное давление.
Po - Атмосферное давление - измеренное на уровне метеостанции атмосферное давление.
Tmin - Минимальная температура - минимум температуры воздуха на высоте 2 м над землей.
Tmax - Максимальная температура - максимум температуры воздуха на высоте 2 м над землей.
R - Количество осадков - Количество выпавших осадков за период времени, мм. При наведении курсора мыши на число - период времени, за который выпало указанное количество осадков.
R24 - Количество осадков - Количество выпавших осадков за 24 часа, мм.
S - Снежный покров - Высота снежного покрова, см. При наведении курсора мыши на число - состояние снежного покрова и степень покрытия местности в баллах.